Tracking 19564 objects as of 19-Mar-2019
HD Live streaming from Space Station
objects crossing your sky now

SL-16 R/B

Track SL-16 R/B now!
10-day predictions
SL-16 R/B is classified as:


NORAD ID: 20625
Int'l Code: 1990-046B
Perigee: 839.3 km
Apogee: 862.0 km
Inclination: 71.0 °
Period: 101.8 minutes
Semi major axis: 7221 km
RCS: 14.0306 m2 (large)
Launch date: May 22, 1990
Source: Commonwealth of Independent States (former USSR) (CIS)
Launch site: TYURATAM MISSILE AND SPACE COMPLEX (TTMTR)

Note: This is a ROCKET BODY
aabbcc
Your satellite tracking list
Your tracking list is empty




NASA's NSSDC Master Catalog

Two Line Element Set (TLE):
1 20625U 90046B   19077.50617351 +.00000282 +00000-0 +17135-3 0  9998
2 20625 070.9972 247.3020 0015725 221.7456 138.2467 14.14639821487993
Source of the keplerian elements: AFSPC